Amateur Radio Satellites - All Passes

Search period start: 19 May 2013 03:19
Search period end: 20 May 2013 03:19
Location: Newcastle Observatory, 43.9158°N, 78.5831°W

Satellite Date Start Highest point End Downlink Frequencies (MHz)
Time Altitude Azimuth
AO-Echo 19 May 03:25:13 03:29:18 28° 96° (E) 03:33:25 ?
AO-27 19 May 03:25:26 03:30:41 85° 104° (ESE) 03:35:55 436.795 MHz FM
Oscar 16 19 May 03:26:27 03:31:38 70° 287° (WNW) 03:36:46 437.025 USB, Beacon 2401.1428
Gurwin Techsat 1B 19 May 03:28:38 03:30:25 12° 87° (E) 03:32:12 435.225 FM
ITAMSAT 1 19 May 03:33:11 03:38:26 84° 285° (WNW) 03:43:39 435.822 SSB
Uribyol 2 19 May 04:15:41 04:20:24 35° 293° (WNW) 04:25:07 436.500 FM
Oscar 19 19 May 04:27:54 04:32:02 25° 296° (WNW) 04:36:09 437.125 CW, 437.150 USB
TMSAT-1 19 May 04:46:39 04:51:41 41° 98° (E) 04:56:41 436.925 FM
MaSat-1 19 May 04:49:53 04:55:44 29° 308° (NW) 05:00:41 437.345 MHz
KITSAT 1 19 May 04:50:41 04:54:56 15° 355° (N) 04:59:11 435.175 FM
Uosat F 19 May 04:52:29 04:57:32 84° 104° (ESE) 05:02:34 435.120 FM
ISS 19 May 04:57:41 05:00:56 53° 143° (SE) 05:04:13 145.800 FM
RS-15 19 May 04:58:51 05:06:39 23° 260° (W) 05:14:23 29.354 - 29.394 USB, Beacon 29.352 USB
AO-Echo 19 May 05:03:56 05:08:07 32° 292° (WNW) 05:12:21 ?
STRAND 1 19 May 05:04:56 05:06:46 12° 56° (NE) 05:08:36 ?
Gurwin Techsat 1B 19 May 05:05:47 05:11:08 89° 107° (ESE) 05:16:28 435.225 FM
AO-27 19 May 05:06:45 05:09:31 15° 302° (WNW) 05:12:16 436.795 MHz FM
Oscar 16 19 May 05:09:08 05:10:03 10° 305° (NW) 05:10:57 437.025 USB, Beacon 2401.1428
ITAMSAT 1 19 May 05:14:53 05:17:08 13° 303° (WNW) 05:19:23 435.822 SSB
AO-7 19 May 05:22:28 05:29:47 32° 96° (E) 05:37:01 29.400 - 29.500 MHz
Saudisat 1A 19 May 06:18:47 06:21:47 17° 110° (ESE) 06:24:48 436.775 MHz
TMSAT-1 19 May 06:26:59 06:31:26 28° 295° (WNW) 06:35:52 436.925 FM
Uosat F 19 May 06:33:09 06:35:40 14° 302° (WNW) 06:38:10 435.120 FM
ISS 19 May 06:34:45 06:37:48 32° 342° (NNW) 06:40:52 145.800 FM
STRAND 1 19 May 06:40:04 06:45:09 81° 74° (ENE) 06:50:16 ?
Gurwin Techsat 1B 19 May 06:47:40 06:50:22 14° 303° (WNW) 06:53:03 435.225 FM
KITSAT 1 19 May 06:48:13 06:54:06 21° 26° (NNE) 06:59:58 435.175 FM
AO-7 19 May 07:14:48 07:22:59 62° 295° (WNW) 07:31:10 29.400 - 29.500 MHz
Hamsat 19 May 07:25:03 07:28:11 19° 92° (E) 07:31:19 145.90 MHz
PCSat 19 May 07:52:58 07:57:01 22° 107° (ESE) 08:01:05 145.825 MHz
Saudisat 1A 19 May 07:56:30 08:01:02 61° 308° (NW) 08:05:37 436.775 MHz
ISS 19 May 08:12:34 08:15:13 21° 2° (N) 08:17:53 145.800 FM
STRAND 1 19 May 08:22:49 08:24:59 13° 272° (W) 08:27:09 ?
Sapphire 19 May 08:24:36 08:29:33 38° 112° (ESE) 08:34:32 437.095 MHz 1200 baud AX-25 AFSK
KITSAT 1 19 May 08:43:22 08:51:24 59° 51° (NE) 08:59:24 435.175 FM
JAS-1B 19 May 08:45:34 08:51:37 47° 98° (E) 08:57:05 435.800 - 435.900 CW/SSB
SO-67 19 May 08:58:09 09:01:44 70° 101° (E) 09:05:18 435.3500 MHz FM
Hamsat 19 May 09:00:21 09:04:26 41° 289° (WNW) 09:08:32 145.90 MHz
AO-7 19 May 09:09:35 09:14:09 16° 316° (NW) 09:18:43 29.400 - 29.500 MHz
PCSat 19 May 09:34:41 09:40:01 58° 305° (NW) 09:45:23 145.825 MHz
Saudisat 1A 19 May 09:39:29 09:41:42 13° 329° (NNW) 09:43:54 436.775 MHz
HO-68 19 May 09:44:13 09:49:59 26° 93° (E) 09:55:43 435.675 MHz FM
ISS 19 May 09:49:24 09:52:35 38° 22° (NNE) 09:55:46 145.800 FM
Sapphire 19 May 10:08:04 10:13:00 36° 311° (NW) 10:18:00 437.095 MHz 1200 baud AX-25 AFSK
SO-50 19 May 10:16:16 10:21:02 66° 121° (ESE) 10:25:44 436.795 FM
JAS-2 19 May 10:32:38 10:39:26 44° 95° (E) 10:45:26 435.800 - 435.900 CW/SSB, 435.910 FM
JAS-1B 19 May 10:36:46 10:41:59 27° 301° (WNW) 10:46:45 435.800 - 435.900 CW/SSB
KITSAT 1 19 May 10:39:17 10:46:26 36° 252° (WSW) 10:53:34 435.175 FM
Oscar 11 19 May 10:48:06 10:52:18 45° 99° (E) 10:56:29 145.825 FM, Beacon 2401.500 USB
PCSat 19 May 11:21:58 11:24:39 14° 327° (NNW) 11:27:20 145.825 MHz
ISS 19 May 11:26:10 11:29:20 38° 220° (SW) 11:32:29 145.800 FM
HO-68 19 May 11:31:06 11:38:11 65° 291° (WNW) 11:45:14 435.675 MHz FM
OPAL 19 May 11:42:30 11:47:32 68° 104° (ESE) 11:52:28 ?
MaSat-1 19 May 11:51:29 11:54:33 23° 50° (NE) 11:57:07 437.345 MHz
SO-50 19 May 11:58:22 12:02:05 22° 320° (NW) 12:05:45 436.795 FM
UOSAT-12 19 May 12:02:36 12:05:32 17° 110° (ESE) 12:08:29 437.025 FM, 437.400 FM
JAS-2 19 May 12:17:48 12:24:19 38° 297° (WNW) 12:30:10 435.800 - 435.900 CW/SSB, 435.910 FM
Oscar 11 19 May 12:25:09 12:28:13 19° 296° (WNW) 12:31:17 145.825 FM, Beacon 2401.500 USB
Oscar 19 19 May 12:31:18 12:32:54 11° 56° (NE) 12:34:30 437.125 CW, 437.150 USB
Oscar 16 19 May 13:06:43 13:11:01 27° 64° (ENE) 13:15:19 437.025 USB, Beacon 2401.1428
AO-27 19 May 13:07:31 13:11:18 21° 62° (ENE) 13:15:05 436.795 MHz FM
ITAMSAT 1 19 May 13:14:50 13:18:51 23° 63° (ENE) 13:22:53 435.822 SSB
HO-68 19 May 13:21:00 13:24:33 15° 312° (NW) 13:28:06 435.675 MHz FM
OPAL 19 May 13:22:39 13:25:53 17° 303° (WNW) 13:29:06 ?
MaSat-1 19 May 13:34:06 13:36:23 17° 257° (WSW) 13:38:24 437.345 MHz
UOSAT-12 19 May 13:40:47 13:45:15 59° 308° (NW) 13:49:46 437.025 FM, 437.400 FM
Uribyol 2 19 May 13:55:32 14:00:33 54° 71° (ENE) 14:05:37 436.500 FM
Oscar 19 19 May 14:06:11 14:11:22 76° 74° (ENE) 14:16:35 437.125 CW, 437.150 USB
Uosat F 19 May 14:30:39 14:34:00 18° 61° (ENE) 14:37:22 435.120 FM
TMSAT-1 19 May 14:33:37 14:35:06 11° 55° (NE) 14:36:35 436.925 FM
AO-7 19 May 14:36:33 14:39:50 13° 40° (NE) 14:43:07 29.400 - 29.500 MHz
AO-Echo 19 May 14:39:37 14:44:15 44° 70° (ENE) 14:48:46 ?
Saudisat 1A 19 May 14:43:29 14:47:18 25° 42° (NE) 14:51:03 436.775 MHz
Oscar 16 19 May 14:45:16 14:50:10 42° 262° (W) 14:55:07 437.025 USB, Beacon 2401.1428
AO-27 19 May 14:45:21 14:50:25 56° 259° (W) 14:55:32 436.795 MHz FM
Gurwin Techsat 1B 19 May 14:50:08 14:54:11 23° 63° (ENE) 14:58:16 435.225 FM
ITAMSAT 1 19 May 14:53:03 14:58:03 49° 260° (W) 15:03:05 435.822 SSB
UOSAT-12 19 May 15:24:20 15:26:23 13° 329° (NNW) 15:28:27 437.025 FM, 437.400 FM
Sapphire 19 May 15:29:37 15:31:08 11° 29° (NNE) 15:32:39 437.095 MHz 1200 baud AX-25 AFSK
Uribyol 2 19 May 15:36:39 15:40:23 20° 268° (W) 15:44:09 436.500 FM
Oscar 19 19 May 15:48:35 15:51:18 14° 271° (W) 15:54:02 437.125 CW, 437.150 USB
Uosat F 19 May 16:07:24 16:12:21 62° 258° (WSW) 16:17:19 435.120 FM
TMSAT-1 19 May 16:08:51 16:14:06 73° 74° (ENE) 16:19:24 436.925 FM
AO-Echo 19 May 16:19:28 16:23:14 22° 267° (W) 16:26:56 ?
AO-7 19 May 16:22:49 16:30:40 50° 62° (ENE) 16:38:34 29.400 - 29.500 MHz
Saudisat 1A 19 May 16:22:51 16:27:15 48° 241° (WSW) 16:31:32 436.775 MHz
Gurwin Techsat 1B 19 May 16:28:39 16:33:49 52° 260° (W) 16:39:01 435.225 FM
PCSat 19 May 16:38:19 16:42:58 28° 45° (NE) 16:47:35 145.825 MHz
SO-50 19 May 17:07:43 17:10:34 16° 35° (NE) 17:13:23 436.795 FM
RS-15 19 May 17:08:22 17:19:53 54° 113° (ESE) 17:30:56 29.354 - 29.394 USB, Beacon 29.352 USB
Sapphire 19 May 17:10:52 17:16:04 43° 52° (NE) 17:21:13 437.095 MHz 1200 baud AX-25 AFSK
JAS-1B 19 May 17:45:01 17:48:47 14° 50° (NE) 17:52:20 435.800 - 435.900 CW/SSB
TMSAT-1 19 May 17:51:37 17:54:36 15° 271° (W) 17:57:36 436.925 FM
AO-7 19 May 18:15:56 18:23:35 41° 262° (W) 18:31:19 29.400 - 29.500 MHz
Hamsat 19 May 18:21:16 18:24:01 17° 64° (ENE) 18:26:47 145.90 MHz
PCSat 19 May 18:21:25 18:26:42 53° 245° (WSW) 18:31:57 145.825 MHz
SO-50 19 May 18:47:20 18:51:55 85° 55° (NE) 18:56:24 436.795 FM
STRAND 1 19 May 18:49:59 18:54:10 25° 94° (E) 18:58:19 ?
Sapphire 19 May 18:54:38 18:59:20 30° 250° (WSW) 19:03:59 437.095 MHz 1200 baud AX-25 AFSK
RS-15 19 May 19:20:48 19:32:26 54° 316° (NW) 19:43:37 29.354 - 29.394 USB, Beacon 29.352 USB
JAS-1B 19 May 19:28:55 19:37:56 56° 68° (ENE) 19:45:42 435.800 - 435.900 CW/SSB
SO-67 19 May 19:35:34 19:38:45 31° 71° (ENE) 19:41:57 435.3500 MHz FM
Hamsat 19 May 19:55:42 19:59:45 46° 261° (W) 20:03:51 145.90 MHz
HO-68 19 May 20:15:08 20:20:36 25° 56° (NE) 20:26:04 435.675 MHz FM
STRAND 1 19 May 20:28:41 20:33:32 44° 291° (WNW) 20:38:23 ?
UOSAT-12 19 May 20:29:29 20:33:23 27° 43° (NE) 20:37:17 437.025 FM, 437.400 FM
SO-50 19 May 20:30:25 20:31:49 11° 253° (WSW) 20:33:12 436.795 FM
JAS-2 19 May 20:45:15 20:51:32 28° 59° (ENE) 20:57:54 435.800 - 435.900 CW/SSB, 435.910 FM
SO-67 19 May 21:09:55 21:12:18 17° 267° (W) 21:14:42 435.3500 MHz FM
JAS-1B 19 May 21:20:02 21:28:34 38° 264° (W) 21:36:08 435.800 - 435.900 CW/SSB
OPAL 19 May 21:21:46 21:25:34 21° 59° (ENE) 21:29:21 ?
RS-15 19 May 21:38:46 21:48:12 27° 348° (NNW) 21:57:20 29.354 - 29.394 USB, Beacon 29.352 USB
Oscar 11 19 May 21:44:49 21:48:53 42° 71° (ENE) 21:52:59 145.825 FM, Beacon 2401.500 USB
HO-68 19 May 22:00:29 22:07:37 75° 255° (WSW) 22:14:47 435.675 MHz FM
UOSAT-12 19 May 22:09:21 22:13:46 46° 242° (WSW) 22:18:09 437.025 FM, 437.400 FM
JAS-2 19 May 22:28:12 22:35:50 73° 258° (WSW) 22:43:45 435.800 - 435.900 CW/SSB, 435.910 FM
OPAL 19 May 22:58:55 23:04:03 59° 257° (WSW) 23:09:10 ?
KITSAT 1 19 May 23:14:07 23:20:56 32° 107° (ESE) 23:27:48 435.175 FM
Oscar 11 19 May 23:22:19 23:25:19 18° 268° (W) 23:28:21 145.825 FM, Beacon 2401.500 USB
HO-68 19 May 23:53:27 23:56:28 13° 274° (W) 23:59:30 435.675 MHz FM
RS-15 19 May 23:55:31 00:05:19 31° 23° (NNE) 00:14:46 29.354 - 29.394 USB, Beacon 29.352 USB
JAS-2 20 May 00:18:08 00:22:05 15° 277° (W) 00:26:08 435.800 - 435.900 CW/SSB, 435.910 FM
KITSAT 1 20 May 01:07:49 01:15:49 65° 307° (NW) 01:23:54 435.175 FM
Uribyol 2 20 May 02:08:02 02:11:29 18° 91° (E) 02:14:54 436.500 FM
RS-15 20 May 02:08:40 02:19:54 76° 52° (NE) 02:30:47 29.354 - 29.394 USB, Beacon 29.352 USB
Oscar 19 20 May 02:17:12 02:21:22 24° 93° (E) 02:25:30 437.125 CW, 437.150 USB
MaSat-1 20 May 02:23:00 02:29:33 39° 109° (ESE) 02:35:08 437.345 MHz
AO-Echo 20 May 02:47:25 02:49:07 12° 89° (E) 02:50:49 ?
Oscar 16 20 May 02:55:19 03:00:29 63° 101° (ESE) 03:05:35 437.025 USB, Beacon 2401.1428
AO-27 20 May 02:56:58 03:02:01 47° 99° (E) 03:07:02 436.795 MHz FM
ITAMSAT 1 20 May 03:04:22 03:09:30 54° 100° (E) 03:14:36 435.822 SSB
KITSAT 1 20 May 03:06:55 03:12:57 22° 332° (NNW) 03:19:02 435.175 FM

Developed and maintained by Chris Peat, Heavens-Above GmbH. Please read the updated FAQ before sending e-mail. Imprint. DLR
